ISS (ZARYA)
1 25544U 98067A 24134.72219907 .00031968 00000+0 54029-3 0 9990
2 25544 51.6378 126.2421 0002670 157.7668 188.1758 15.51305382453198


Ligne 0
Le nom commun de l'objetISS (ZARYA)
Ligne 1
Numéro de catalogue satellite25544U
Désignateur international98067A
Année de lancement98
Numéro de lancement dans l'année067
Object du lancementA
Époque (année)24
Époque (Jour de l'année en UTC)134.72219907
1ère dérivée du mouvement moyen .00031968
2ème dérivée du mouvement moyen 00000+0
B * Terme de glissement 54029-3
Type de jeu d'éléments0
Numéro d'élément 999
Ligne 2
Numéro de catalogue satellite25544
Inclinaison de l'orbite (degrés) 51.6378
Ascension droite du nœud ascendant (degrés)126.2421
Excentricité0002670
Argument du Périgée (degrés)157.7668
Anomalie moyenne (degrés)188.1758
Mouvement moyen (révolutions / jour)15.51305382
Numéro de révolution à l'époque45319
Valeurs déduites
Période Orbitale (en minutes)92.8 min.
Demi-grand axe (en kilomètres)6791.1 Km
Altitude à l‘Apogée (en kilomètres)421.9 Km
Altitude au Périgée (en kilomètres)418.2 Km

* Sources des TLE's : Celestrack